Starlink 11350

operational
NORAD ID: 61540 Int'l Des: 2024-184 Owner: SPXS Country: US Constellation: starlink
LEOCIRCULAR

Über Starlink 11350

Beschreibung wird geladen...

Live-Position

3D-Globus wird geladen...

Nächste Überflüge

Höhenverlauf

Altitude vs Time

uPlot chart will show altitude changes over time

Zweizeiliger Elementsatz

1 61540U 24184J 25305.97748643 -.00001646 00000-0 -87397-5 0 9996
2 61540 53.1589 145.4744 0001260 92.3689 267.7473 15.69687455 60361
Epoch: 1. Nov. 2025 • Age: 34 hours

Aktueller Status

Höhe 362.8 km
Geschwindigkeit 7.69 km/s
Subsatellitenpunkt -9.76°S, 47.05°W
Startdatum 15. Okt. 2024
Alter 1 years
Typ internet

Technische Details

Klassifizierung Payload
Masse 960.00 kg
Trockenmasse 910.00 kg
Gesamtmasse 960.00 kg
Länge 0.30 m
Durchmesser 4.10 m
Spannweite 29.00 m
Form Box + pan
Hersteller SPXS
Bus-Typ Starlink V2MD
Phasenstatus In Orbit
Besitzer/Staat SPXS/US

Große Konstellationen

Loading constellations...